Regional Weather Roundup
Issued by NWS

Home | Current Version | Previous Version | Graphics & Text | Print | Product List | Glossary On
Versions: 1 2 3 4 5 6 7 8 9 10 11 12 13 14 15 16 17 18 19 20 21 22 23 24 25 26 27 28 29 30 31 32 33 34 35 36 37 38 39 40 41 42 43 44 45 46 47 48 49 50
312
ASUS45 KCYS 291310
RWRWY

WYOMING REGIONAL WEATHER ROUNDUP
NATIONAL WEATHER SERVICE CHEYENNE WY
700 AM MDT SAT APR 29 2017

NOTE:  "FAIR" INDICATES FEW OR NO CLOUDS BELOW 12,000 FEET
WITH NO SIGNIFICANT WEATHER AND/OR OBSTRUCTIONS TO VISIBILITY.

WYZ001-291400-
YELLOWSTONE NATIONAL PARK

CITY           SKY/WX    TMP DP  RH WIND       PRES   REMARKS
LK YELLOWSTONE   N/A     15  13  91 CALM      30.21R
W YELLOWSTONE  NOT AVBL

$$
WYZ002>013-054>058-071-098>099-291400-
NORTHERN WYOMING

CITY           SKY/WX    TMP DP  RH WIND       PRES   REMARKS
JACKSON        CLEAR     27  21  80 N13       30.18R WCI  16
CODY           LGT RAIN  33  30  88 CALM      30.23R
GREYBULL       FAIR      34  31  88 S5        30.24R WCI  30
WORLAND        FAIR      30  30 100 S6        30.24R WCI  24
SHERIDAN       FAIR      26  21  81 CALM      30.24R
BUFFALO        FAIR      28  15  58 SW7       30.23R WCI  21
GILLETTE       FAIR      13  12  96 S6        30.23R WCI   4
HULETT         FAIR      32  27  80 S3        30.23S
NEWCASTLE      FAIR      28  23  80 NE5       30.25R WCI  23

$$
WYZ014>020-022>026-101>103-291400-
CENTRAL WYOMING

CITY           SKY/WX    TMP DP  RH WIND       PRES   REMARKS
BIG PINEY      FAIR      18  15  88 W5        30.19R WCI  11
PINEDALE       FAIR      23  19  86 CALM      30.19R
DUBOIS         FLURRIES  23  21  93 CALM      30.18R
LANDER         CLOUDY    28  24  85 W7        30.21R WCI  21
RIVERTON       CLOUDY    23  23 100 NW8       30.23R WCI  14
CASPER         CLOUDY    25  24  96 N8        30.21R WCI  16
DOUGLAS        FOG       19  17  92 CALM      30.23R VSB 1/4

$$
WYZ021-027>030-104>119-291400-
SOUTHERN WYOMING

CITY           SKY/WX    TMP DP  RH WIND       PRES   REMARKS
EVANSTON       MOCLDY    24  19  81 NE7       30.15R WCI  16
FORT BRIDGER   FAIR      19  19 100 N5        30.19R WCI  13
ROCK SPRINGS   CLOUDY    27  19  72 N15       30.15R WCI  15
DIXON            N/A     30  18  60 NE14      30.07R WCI  19
RAWLINS        CLOUDY    26  18  71 E13       30.13R WCI  15
SARATOGA       CLOUDY    28  21  74 NE9       30.11R WCI  20
LARAMIE        LGT SNOW  23  20  88 NE12      30.12R FOG     WCI  12
CHEYENNE       LGT SNOW  26  23  88 N12       30.14R FOG     WCI  16
TORRINGTON     CLOUDY    30  25  81 N9        30.22R WCI  22
PINE BLUFFS    CLOUDY    30  28  93 N12       30.16R WCI  21

$$




USA.gov is the U.S. government's official web portal to all federal, state and local government web resources and services.